| time (UTC) | temp C | wind direction | speed KPH | gust KPH | rain 1hr cm | rain 24hr cm | rain mn cm | humidity % | barometer mb |
| 20260505211538 | 23 | 123 | 14.5 | 20.9 | 0.00 | 0.00 | 0.00 | 57 | 1018.7 |
| 20260505210035 | 23 | 103 | 12.9 | 19.3 | 0.00 | 0.00 | 0.00 | 55 | 1018.8 |
| 20260505204553 | 23 | 114 | 12.9 | 19.3 | 0.00 | 0.00 | 0.00 | 52 | 1018.7 |
| 20260505203036 | 23 | 108 | 17.7 | 20.9 | 0.00 | 0.00 | 0.00 | 56 | 1018.9 |
| 20260505201538 | 23 | 114 | 16.1 | 20.9 | 0.00 | 0.00 | 0.00 | 59 | 1018.9 |
| 20260505200037 | 23 | 110 | 14.5 | 19.3 | 0.00 | 0.00 | 0.00 | 57 | 1019.0 |
| 20260505194537 | 23 | 124 | 12.9 | 19.3 | 0.00 | 0.00 | 0.00 | 59 | 1019.3 |
| 20260505193042 | 23 | 99 | 12.9 | 16.1 | 0.00 | 0.00 | 0.00 | 59 | 1019.4 |
| 20260505191540 | 23 | 98 | 12.9 | 16.1 | 0.00 | 0.00 | 0.00 | 58 | 1019.5 |
| 20260505190046 | 23 | 101 | 12.9 | 16.1 | 0.00 | 0.00 | 0.00 | 58 | 1019.4 |
| 20260505184538 | 23 | 110 | 11.3 | 16.1 | 0.00 | 0.00 | 0.00 | 59 | 1019.8 |
| 20260505183044 | 23 | 99 | 12.9 | 16.1 | 0.00 | 0.00 | 0.00 | 57 | 1019.8 |
| 20260505181537 | 23 | 100 | 11.3 | 16.1 | 0.00 | 0.00 | 0.00 | 59 | 1019.8 |
| 20260505180045 | 23 | 107 | 11.3 | 16.1 | 0.00 | 0.00 | 0.00 | 59 | 1020.1 |
| 20260505174545 | 23 | 88 | 11.3 | 12.9 | 0.00 | 0.00 | 0.00 | 60 | 1020.1 |
| 20260505173043 | 23 | 86 | 11.3 | 14.5 | 0.00 | 0.00 | 0.00 | 60 | 1020.2 |
| 20260505171536 | 23 | 114 | 9.7 | 12.9 | 0.00 | 0.00 | 0.00 | 61 | 1020.4 |
| 20260505170037 | 23 | 120 | 9.7 | 12.9 | 0.00 | 0.00 | 0.00 | 58 | 1020.6 |
| 20260505164538 | 23 | 95 | 8.0 | 12.9 | 0.00 | 0.00 | 0.00 | 56 | 1020.6 |
| 20260505163036 | 23 | 126 | 9.7 | 14.5 | 0.00 | 0.00 | 0.00 | 60 | 1020.5 |
| 20260505161535 | 23 | 108 | 11.3 | 14.5 | 0.00 | 0.00 | 0.00 | 60 | 1020.5 |
| 20260505153045 | 23 | 116 | 11.3 | 14.5 | 0.00 | 0.00 | 0.00 | 58 | 1020.2 |
| 20260505151536 | 23 | 91 | 9.7 | 12.9 | 0.00 | 0.00 | 0.00 | 60 | 1020.4 |
| 20260505124538 | 23 | 127 | 9.7 | 14.5 | 0.00 | 0.00 | 0.00 | 65 | 1019.5 |
| 20260505123042 | 22 | 124 | 12.9 | 16.1 | 0.00 | 0.00 | 0.00 | 63 | 1019.4 |
| 20260505121542 | 23 | 108 | 9.7 | 16.1 | 0.00 | 0.00 | 0.00 | 65 | 1019.2 |
| 20260505120047 | 22 | 120 | 12.9 | 16.1 | 0.00 | 0.00 | 0.00 | 66 | 1019.2 |
| 20260505114542 | 22 | 103 | 14.5 | 17.7 | 0.00 | 0.00 | 0.00 | 65 | 1019.2 |
| 20260505113035 | 22 | 124 | 8.0 | 14.5 | 0.00 | 0.00 | 0.00 | 65 | 1018.9 |
| 20260505111539 | 22 | 136 | 6.4 | 16.1 | 0.00 | 0.00 | 0.00 | 66 | 1018.9 |
| 20260505101543 | 21 | 145 | 9.7 | 16.1 | 0.00 | 0.00 | 0.00 | 67 | 1018.5 |
| 20260505100041 | 21 | 168 | 6.4 | 14.5 | 0.00 | 0.00 | 0.00 | 67 | 1018.4 |
| 20260505094538 | 21 | 175 | 9.7 | 16.1 | 0.00 | 0.00 | 0.00 | 66 | 1018.2 |
| 20260505093035 | 21 | 150 | 6.4 | 17.7 | 0.00 | 0.00 | 0.00 | 65 | 1018.1 |
| 20260505091539 | 21 | 121 | 9.7 | 16.1 | 0.00 | 0.00 | 0.00 | 65 | 1018.1 |
| 20260505090038 | 21 | 168 | 6.4 | 16.1 | 0.00 | 0.00 | 0.00 | 65 | 1018.1 |
| 20260505084543 | 21 | 135 | 4.8 | 14.5 | 0.00 | 0.00 | 0.00 | 66 | 1018.2 |
| 20260505083041 | 21 | 168 | 8.0 | 16.1 | 0.00 | 0.00 | 0.00 | 64 | 1018.1 |
| 20260505081538 | 21 | 171 | 8.0 | 17.7 | 0.00 | 0.00 | 0.00 | 66 | 1018.0 |
| 20260505080037 | 21 | 117 | 8.0 | 17.7 | 0.00 | 0.00 | 0.00 | 66 | 1017.9 |
| 20260505074537 | 22 | 185 | 9.7 | 19.3 | 0.00 | 0.00 | 0.00 | 65 | 1018.0 |
| 20260505073042 | 22 | 158 | 9.7 | 17.7 | 0.00 | 0.00 | 0.00 | 66 | 1018.1 |
| 20260505071540 | 22 | 144 | 9.7 | 16.1 | 0.00 | 0.00 | 0.00 | 67 | 1018.1 |
| 20260505070050 | 22 | 156 | 9.7 | 22.5 | 0.00 | 0.00 | 0.00 | 64 | 1017.9 |
| 20260505064537 | 22 | 116 | 16.1 | 20.9 | 0.00 | 0.00 | 0.00 | 64 | 1018.1 |
| 20260505063035 | 22 | 103 | 11.3 | 17.7 | 0.00 | 0.00 | 0.00 | 65 | 1018.4 |
| 20260505061543 | 22 | 160 | 8.0 | 19.3 | 0.00 | 0.00 | 0.00 | 65 | 1018.2 |
| 20260505060040 | 22 | 169 | 9.7 | 19.3 | 0.00 | 0.00 | 0.00 | 64 | 1018.4 |
| 20260505054540 | 22 | 111 | 14.5 | 20.9 | 0.00 | 0.00 | 0.00 | 63 | 1018.6 |
| 20260505053037 | 22 | 160 | 11.3 | 19.3 | 0.00 | 0.00 | 0.00 | 63 | 1018.9 |
| 20260505051541 | 22 | 143 | 11.3 | 20.9 | 0.00 | 0.00 | 0.00 | 65 | 1019.1 |
| 20260505041549 | 22 | 161 | 11.3 | 24.1 | 0.00 | 0.00 | 0.00 | 63 | 1019.3 |
| 20260505040052 | 22 | 121 | 12.9 | 25.7 | 0.00 | 0.00 | 0.00 | 64 | 1019.3 |
| 20260505034538 | 22 | 182 | 9.7 | 22.5 | 0.00 | 0.00 | 0.00 | 65 | 1019.3 |
| 20260505033039 | 22 | 146 | 11.3 | 25.7 | 0.00 | 0.00 | 0.00 | 64 | 1019.5 |
| 20260505031543 | 22 | 113 | 12.9 | 27.4 | 0.00 | 0.00 | 0.00 | 66 | 1019.6 |
| 20260505030035 | 22 | 162 | 12.9 | 30.6 | 0.00 | 0.00 | 0.00 | 66 | 1019.7 |
| 20260505024554 | 22 | 120 | 25.7 | 30.6 | 0.00 | 0.00 | 0.00 | 65 | 1019.7 |
| 20260505023039 | 22 | 130 | 25.7 | 30.6 | 0.00 | 0.00 | 0.00 | 64 | 1019.8 |
| 20260505021539 | 22 | 118 | 25.7 | 29.0 | 0.00 | 0.00 | 0.00 | 63 | 1019.8 |
| 20260505020037 | 22 | 160 | 24.1 | 30.6 | 0.00 | 0.00 | 0.00 | 65 | 1019.8 |
| 20260505014601 | 22 | 137 | 20.9 | 29.0 | 0.00 | 0.00 | 0.00 | 66 | 1019.6 |
| 20260505013108 | 22 | 120 | 24.1 | 29.0 | 0.00 | 0.00 | 0.00 | 66 | 1019.5 |
| 20260505011545 | 22 | 128 | 22.5 | 29.0 | 0.00 | 0.00 | 0.00 | 63 | 1019.4 |
| 20260505010039 | 22 | 134 | 22.5 | 27.4 | 0.00 | 0.00 | 0.00 | 63 | 1019.4 |
| 20260505004539 | 22 | 125 | 24.1 | 27.4 | 0.00 | 0.00 | 0.00 | 64 | 1019.3 |
| 20260505003035 | 22 | 133 | 20.9 | 32.2 | 0.00 | 0.00 | 0.00 | 64 | 1019.2 |
| 20260505001539 | 22 | 117 | 20.9 | 29.0 | 0.00 | 0.00 | 0.00 | 61 | 1018.9 |
| 20260505000051 | 22 | 117 | 24.1 | 30.6 | 0.00 | 0.00 | 0.00 | 62 | 1018.9 |
| 20260504234542 | 22 | 124 | 22.5 | 29.0 | 0.00 | 0.00 | 0.00 | 64 | 1018.6 |
| 20260504233052 | 22 | 123 | 14.5 | 29.0 | 0.00 | 0.00 | 0.00 | 61 | 1018.5 |
| 20260504231537 | 22 | 125 | 22.5 | 29.0 | 0.00 | 0.00 | 0.00 | 58 | 1018.6 |
| 20260504230042 | 22 | 127 | 24.1 | 29.0 | 0.00 | 0.00 | 0.00 | 60 | 1018.7 |
| 20260504224542 | 22 | 128 | 20.9 | 29.0 | 0.00 | 0.00 | 0.00 | 58 | 1018.9 |
| 20260504223055 | 22 | 147 | 22.5 | 25.7 | 0.00 | 0.00 | 0.00 | 60 | 1018.9 |
| 20260504221538 | 22 | 117 | 19.3 | 27.4 | 0.00 | 0.00 | 0.00 | 60 | 1018.9 |
| 20260504220035 | 22 | 124 | 20.9 | 30.6 | 0.00 | 0.00 | 0.00 | 60 | 1018.9 |
| 20260504214538 | 22 | 127 | 24.1 | 29.0 | 0.00 | 0.00 | 0.00 | 61 | 1019.1 |
| 20260504213051 | 22 | 162 | 17.7 | 25.7 | 0.00 | 0.00 | 0.00 | 61 | 1019.1 |